Voltar ao catálogo

SCOUT G-1 DEB

AtivoPO
NORAD 43331·DEBRIS·🇺🇸 United States

Lançado Apr 26, 1988 de Vandenberg Space Force Base

Loading…

Próximas Passagens (próximas 24 horas)

TLE

EnvelhecendoSource: Space-Track

Época: Sep 9, 2026, 02:41 UTC

1 43331U 88033M   26252.11218956  .00000341  00000-0  61076-3 0  9997
2 43331  90.3256  21.2821 0168474 288.7760  69.5169 13.35212085247880

Acompanhe SCOUT G-1 DEB em tempo real com AllMySat

Download on the App Store